When you browse on this site, cookies collect data to enhance your experience and personalize the content and advertising you see.
Visit our Privacy Policy to learn more. By continuing to use the site, you agree to this use of cookies and data.
  • In Czech Republic
  • List of Countries
  • For 7 days
  • Water Temperature
  • Satellite Maps
  • Weather Map
  • Weather Widgets
  • user-avatar
    Login

    Hourly Weather Quito

    Today, 20 January, Sunday

    Time Temperature Precipitation Wind Pressure Humidity
    00:00 +16°C° 0 mm 1 mps 622 mmHg 96%
    01:00 +15°C° 0 mm 2 mps 622 mmHg 97%
    02:00 +15°C° 0 mm 2 mps 621 mmHg 97%
    03:00 +15°C° 0 mm 1 mps 621 mmHg 97%
    04:00 +15°C° 0 mm 1 mps 621 mmHg 97%
    05:00 +16°C° 0.3 mm 2 mps 622 mmHg 96%
    06:00 +16°C° 0.3 mm 2 mps 622 mmHg 96%
    07:00 +17°C° 0 mm 2 mps 623 mmHg 94%
    08:00 +18°C° 0.4 mm 2 mps 623 mmHg 91%
    09:00 +19°C° 0.4 mm 2 mps 624 mmHg 89%
    10:00 +19°C° 0.4 mm 2 mps 624 mmHg 87%
    11:00 +21°C° 1.1 mm 2 mps 624 mmHg 83%
    12:00 +23°C° 1.1 mm 2 mps 624 mmHg 80%
    13:00 +24°C° 1.1 mm 2 mps 623 mmHg 76%
    14:00 +24°C° 1.8 mm 2 mps 623 mmHg 79%
    15:00 +23°C° 1.8 mm 2 mps 622 mmHg 82%
    16:00 +21°C° 1.8 mm 2 mps 622 mmHg 85%
    17:00 +20°C° 1.8 mm 2 mps 622 mmHg 88%
    18:00 +19°C° 1.8 mm 2 mps 622 mmHg 90%
    19:00 +18°C° 1.8 mm 2 mps 622 mmHg 93%
    20:00 +18°C° 1 mm 2 mps 622 mmHg 93%
    21:00 +18°C° 1 mm 2 mps 623 mmHg 94%
    22:00 +18°C° 1 mm 2 mps 623 mmHg 94%
    23:00 +17°C° 0.3 mm 2 mps 623 mmHg 95%

    Tomorrow, 21 January, Monday

    Time Temperature Precipitation Wind Pressure Humidity
    00:00 +17°C° 0.3 mm 2 mps 623 mmHg 96%
    01:00 +17°C° 0.3 mm 2 mps 623 mmHg 96%
    02:00 +17°C° 0.1 mm 2 mps 622 mmHg 97%
    03:00 +16°C° 0.1 mm 2 mps 622 mmHg 97%
    04:00 +16°C° 0.1 mm 2 mps 622 mmHg 98%
    05:00 +17°C° 0 mm 2 mps 622 mmHg 97%
    06:00 +17°C° 0 mm 2 mps 623 mmHg 96%
    07:00 +18°C° 0 mm 2 mps 623 mmHg 95%
    08:00 +19°C° 0.5 mm 2 mps 624 mmHg 92%
    09:00 +21°C° 0.5 mm 1 mps 624 mmHg 89%
    10:00 +22°C° 0.5 mm 1 mps 624 mmHg 86%
    11:00 +23°C° 1.4 mm 1 mps 624 mmHg 84%
    12:00 +23°C° 1.4 mm 1 mps 624 mmHg 83%
    13:00 +24°C° 1.4 mm 1 mps 623 mmHg 82%
    14:00 +23°C° 2.6 mm 1 mps 623 mmHg 84%
    15:00 +23°C° 2.6 mm 2 mps 622 mmHg 86%
    16:00 +21°C° 2.6 mm 2 mps 621 mmHg 88%
    17:00 +20°C° 2.3 mm 2 mps 621 mmHg 90%
    18:00 +19°C° 2.3 mm 2 mps 621 mmHg 92%
    19:00 +18°C° 2.3 mm 2 mps 621 mmHg 94%
    20:00 +18°C° 1.3 mm 2 mps 622 mmHg 94%
    21:00 +18°C° 1.3 mm 2 mps 622 mmHg 95%
    22:00 +19°C° 1.3 mm 1 mps 623 mmHg 96%
    23:00 +19°C° 1.4 mm 1 mps 622 mmHg 96%

    Day after tomorrow, 22 January, Tuesday

    Time Temperature Precipitation Wind Pressure Humidity
    00:00 +18°C° 1.4 mm 1 mps 622 mmHg 96%
    01:00 +18°C° 1.4 mm 1 mps 622 mmHg 96%
    02:00 +18°C° 1.8 mm 1 mps 622 mmHg 96%
    03:00 +18°C° 1.8 mm 1 mps 621 mmHg 96%
    04:00 +18°C° 1.8 mm 1 mps 621 mmHg 95%
    05:00 +16°C° 1.4 mm 0 mps 622 mmHg 95%
    06:00 +17°C° 1.4 mm 0 mps 622 mmHg 95%
    07:00 +17°C° 1.4 mm 0 mps 622 mmHg 95%
    08:00 +17°C° 1.6 mm 0 mps 623 mmHg 93%
    09:00 +18°C° 1.6 mm 0 mps 623 mmHg 92%
    10:00 +20°C° 1.6 mm 1 mps 623 mmHg 91%
    11:00 +21°C° 0.6 mm 1 mps 623 mmHg 88%
    12:00 +22°C° 0.6 mm 1 mps 622 mmHg 85%
    13:00 +23°C° 0.6 mm 1 mps 622 mmHg 82%
    14:00 +23°C° 1.5 mm 1 mps 622 mmHg 82%
    15:00 +23°C° 1.5 mm 1 mps 621 mmHg 82%
    16:00 +23°C° 1.5 mm 2 mps 621 mmHg 82%
    17:00 +21°C° 1.3 mm 2 mps 621 mmHg 85%
    18:00 +20°C° 1.3 mm 2 mps 621 mmHg 88%
    19:00 +20°C° 1.3 mm 1 mps 621 mmHg 91%
    20:00 +20°C° 1.8 mm 1 mps 622 mmHg 92%
    21:00 +19°C° 1.8 mm 1 mps 622 mmHg 92%
    22:00 +19°C° 1.8 mm 1 mps 622 mmHg 93%
    23:00 +19°C° 0.9 mm 1 mps 622 mmHg 92%

    23 January, Wednesday

    Time Temperature Precipitation Wind Pressure Humidity
    00:00 +19°C° 0.9 mm 1 mps 622 mmHg 92%
    01:00 +17°C° 0.9 mm 0 mps 621 mmHg 92%
    02:00 +16°C° 0.2 mm 0 mps 621 mmHg 92%
    03:00 +18°C° 0.2 mm 1 mps 621 mmHg 93%
    04:00 +16°C° 0.2 mm 1 mps 620 mmHg 94%
    05:00 +18°C° 0.1 mm 1 mps 621 mmHg 93%
    06:00 +18°C° 0.1 mm 1 mps 622 mmHg 93%
    07:00 +19°C° 0.1 mm 1 mps 622 mmHg 93%
    08:00 +19°C° 0.2 mm 2 mps 623 mmHg 85%
    09:00 +21°C° 0.2 mm 2 mps 624 mmHg 77%
    10:00 +24°C° 0.2 mm 3 mps 624 mmHg 70%
    11:00 +25°C° 0.2 mm 3 mps 624 mmHg 65%
    12:00 +26°C° 0.2 mm 3 mps 623 mmHg 60%
    13:00 +27°C° 0.2 mm 3 mps 623 mmHg 55%
    14:00 +26°C° 0.2 mm 3 mps 622 mmHg 59%
    15:00 +26°C° 0.2 mm 3 mps 622 mmHg 62%
    16:00 +25°C° 0.2 mm 3 mps 621 mmHg 65%
    17:00 +23°C° 0.8 mm 2 mps 621 mmHg 72%
    18:00 +21°C° 0.8 mm 1 mps 621 mmHg 80%
    19:00 +19°C° 0.8 mm 1 mps 621 mmHg 87%
    20:00 +19°C° 0.2 mm 1 mps 621 mmHg 88%
    21:00 +19°C° 0.2 mm 1 mps 622 mmHg 88%
    22:00 +19°C° 0.2 mm 1 mps 622 mmHg 88%
    23:00 +19°C° 0.1 mm 1 mps 622 mmHg 89%

    24 January, Thursday

    Time Temperature Precipitation Wind Pressure Humidity
    00:00 +19°C° 0.1 mm 1 mps 621 mmHg 89%
    01:00 +18°C° 0.1 mm 1 mps 621 mmHg 89%
    02:00 +18°C° 0 mm 1 mps 621 mmHg 90%
    03:00 +16°C° 0 mm 1 mps 620 mmHg 90%
    04:00 +16°C° 0 mm 1 mps 620 mmHg 91%
    05:00 +18°C° 0 mm 1 mps 621 mmHg 90%
    06:00 +18°C° 0 mm 1 mps 621 mmHg 88%
    07:00 +19°C° 0 mm 1 mps 622 mmHg 87%
    08:00 +21°C° 0.2 mm 1 mps 623 mmHg 80%
    09:00 +23°C° 0.2 mm 1 mps 623 mmHg 73%
    10:00 +26°C° 0.2 mm 1 mps 624 mmHg 66%
    11:00 +26°C° 0.8 mm 1 mps 624 mmHg 64%
    12:00 +26°C° 0.8 mm 2 mps 623 mmHg 63%
    13:00 +26°C° 0.8 mm 2 mps 623 mmHg 62%
    14:00 +26°C° 0.5 mm 2 mps 622 mmHg 64%
    15:00 +25°C° 0.5 mm 2 mps 621 mmHg 67%
    16:00 +25°C° 0.5 mm 2 mps 621 mmHg 70%
    17:00 +23°C° 0.4 mm 2 mps 621 mmHg 75%
    18:00 +21°C° 0.4 mm 1 mps 621 mmHg 81%
    19:00 +20°C° 0.4 mm 1 mps 621 mmHg 86%
    20:00 +19°C° 0 mm 1 mps 621 mmHg 88%
    21:00 +19°C° 0 mm 1 mps 621 mmHg 90%
    22:00 +18°C° 0 mm 1 mps 622 mmHg 92%
    23:00 +18°C° 0 mm 1 mps 621 mmHg 91%

    25 January, Friday

    Time Temperature Precipitation Wind Pressure Humidity
    00:00 +16°C° 0 mm 1 mps 621 mmHg 91%
    01:00 +15°C° 0 mm 0 mps 621 mmHg 91%
    02:00 +15°C° 0 mm 0 mps 621 mmHg 90%
    03:00 +15°C° 0 mm 0 mps 621 mmHg 88%
    04:00 +16°C° 0 mm 0 mps 621 mmHg 87%
    05:00 +16°C° 0 mm 0 mps 622 mmHg 87%
    06:00 +19°C° 0 mm 1 mps 622 mmHg 87%
    07:00 +19°C° 0 mm 1 mps 623 mmHg 86%
    08:00 +22°C° 0 mm 1 mps 623 mmHg 76%
    09:00 +24°C° 0 mm 2 mps 624 mmHg 67%
    10:00 +26°C° 0 mm 2 mps 625 mmHg 57%
    11:00 +27°C° 0.2 mm 2 mps 624 mmHg 57%
    12:00 +27°C° 0.2 mm 2 mps 624 mmHg 56%
    13:00 +27°C° 0.2 mm 3 mps 623 mmHg 56%
    14:00 +27°C° 1 mm 2 mps 623 mmHg 61%
    15:00 +26°C° 1 mm 2 mps 622 mmHg 66%
    16:00 +25°C° 1 mm 2 mps 621 mmHg 71%
    17:00 +23°C° 0.6 mm 1 mps 621 mmHg 75%
    18:00 +22°C° 0.6 mm 1 mps 621 mmHg 80%
    19:00 +20°C° 0.6 mm 1 mps 621 mmHg 85%
    20:00 +20°C° 0 mm 1 mps 622 mmHg 85%
    21:00 +19°C° 0 mm 1 mps 622 mmHg 86%
    22:00 +18°C° 0 mm 2 mps 622 mmHg 86%
    23:00 +17°C° 0.1 mm 2 mps 622 mmHg 88%
    Show more